Preview of NWS' New Version of Forecast
This preview is not operational and should not be used for support decisions.

Regional Weather Roundup (RWR)

Issued by National Weather Service (NWS)

                            
000
ASUS45 KCYS 211510
RWRWY 

WYOMING REGIONAL WEATHER ROUNDUP
NATIONAL WEATHER SERVICE CHEYENNE WY
900 AM MDT SUN APR 21 2019

NOTE:  "FAIR" INDICATES FEW OR NO CLOUDS BELOW 12,000 FEET
WITH NO SIGNIFICANT WEATHER AND/OR OBSTRUCTIONS TO VISIBILITY.

WYZ001-211600-
...YELLOWSTONE NATIONAL PARK...
  
CITY           SKY/WX    TMP DP  RH WIND       PRES   REMARKS
LK YELLOWSTONE   N/A     35  33  92 CALM      29.97R                  
W YELLOWSTONE  NOT AVBL                                               

$$
WYZ002>013-054>058-071-098>099-211600-
...NORTHERN WYOMING...
  
CITY           SKY/WX    TMP DP  RH WIND       PRES   REMARKS
JACKSON        LGT RAIN  39  35  86 CALM      29.92R                  
CODY           LGT RAIN  40  36  86 NW18      30.01R WCI  31          
GREYBULL       LGT RAIN  45  40  82 NW16G24   29.91R                  
WORLAND        CLOUDY    49  40  71 N12       29.93R                  
SHERIDAN       CLOUDY    45  42  89 N12       30.00R                  
BUFFALO        LGT RAIN  43  42  97 N17       29.97R VSB 3/4          
GILLETTE       CLOUDY    44  44 100 NW17      29.93R FOG              
HULETT         CLOUDY    46  43  87 E12G17    29.92R                  
NEWCASTLE      DRIZZLE   46  43  87 S8        29.88R                  

$$
WYZ014>020-022>026-101>103-211600-
...CENTRAL WYOMING...
  
CITY           SKY/WX    TMP DP  RH WIND       PRES   REMARKS
BIG PINEY      CLOUDY    42  39  89 E7        29.92R                  
PINEDALE       DRIZZLE   39  37  93 CALM      29.93R                  
DUBOIS         CLOUDY    39  34  81 E10G17    29.92S WCI  32          
LANDER         LGT RAIN  45  41  86 NW3       29.91R                  
RIVERTON       LGT RAIN  46  41  82 NE10      29.92R                  
CASPER         CLOUDY    44  44 100 N17       29.93R FOG              
DOUGLAS        CLOUDY    49  45  86 NE12      29.90R                  

$$
WYZ021-027>030-104>119-211600-
...SOUTHERN WYOMING...
  
CITY           SKY/WX    TMP DP  RH WIND       PRES   REMARKS
EVANSTON       CLOUDY    42  36  79 VRB3      29.90S                  
KEMMERER       CLOUDY    41  37  87 CALM      29.91F                  
FORT BRIDGER   CLOUDY    46  36  66 S3        29.93F                  
ROCK SPRINGS   CLOUDY    46  34  62 N3        29.91S                  
DIXON          CLOUDY    50  30  45 S10       29.94R                  
RAWLINS        PTSUNNY   51  31  46 NW7       29.91R                  
SARATOGA       FAIR      50  30  46 CALM      29.92S                  
LARAMIE        CLOUDY    51  30  44 CALM      29.90S                  
CHEYENNE       CLOUDY    55  36  48 E9        29.86F                  
TORRINGTON     CLOUDY    51  45  79 N10       29.85R                  
PINE BLUFFS    CLOUDY    54  36  50 CALM      29.86R                  

$$